Location: Banios
(43.0451°N, 0.2335°E)
Time: 13:59:47
(UTC+00:00)

A-11 Canister half - Pass Details

Date: 10 May 2021
Orbit: 1513 x 1686 km, 47.2° (Epoch: 14 June)

Event Time Altitude Azimuth Distance (km) Brightness Sun altitude
Rises 14:29:26 0° 215° (SW) 4,675 12.1 48.9°
Reaches altitude 10° 14:32:37 10° 210° (SSW) 3,681 11.7 48.3°
Maximum altitude 14:41:19 48° 140° (SE) 1,907 9.9 46.9°
Drops below altitude 10° 14:50:00 10° 70° (ENE) 3,687 10.7 45.4°
Sets 14:53:11 0° 65° (ENE) 4,683 11.1 44.9°
